Walla Walla, WA

1:41 AM PST on November 20, 2017 (GMT -0800)
Walla Walla Regional

Weather History for KALW - February, 2013

Change the Weather History Date:

Sunday, February 17, 2013

  Actual Average Record
Temperature  
Mean Temperature 40 °F 39 °F  
Max Temperature 48 °F 46 °F 69 °F (2007)
Min Temperature 32 °F 32 °F 4 °F (1956)
Degree Days  
Heating Degree Days 24 26  
Month to date heating degree days 456  
Since 1 July heating degree days 3508  
Cooling Degree Days 0 0  
Month to date cooling degree days 0  
Year to date cooling degree days 0  
Moisture  
Dew Point 28 °F    
Average Humidity 62    
Maximum Humidity 76    
Minimum Humidity 41    
Precipitation  
Precipitation 0.00 in 0.06 in 0.74 in (1986)
Month to date precipitation 1.03  
Year to date precipitation 3.56  
Snow  
Snow 0.00 in 0.20 in 6.00 in (1959)
Month to date snowfall 1.9  
Year to date snowfall 3.8  
Since 1 July snowfall 9.5  
Snow Depth -    
Sea Level Pressure  
Sea Level Pressure 30.16 in    
Wind  
Wind Speed 12 mph (South)    
Max Wind Speed 16 mph    
Max Gust Speed 20 mph    
Visibility 10 miles    
Events      
T = Trace of Precipitation, MM = Missing Value Source: NWS Daily Summary

Daily Weather History Graph

Daily Weather History Graph

Search for Another Location

Airport or City:

Trip Planner

Search our weather history database for the weather conditions in past years. The results will help you decide how hot, cold, wet, or windy it might be!

Date:

Astronomy

Feb. 17, 2013 Rise Set
Actual Time 6:52 AM PST 5:22 PM PST
Civil Twilight 6:21 AM PST 5:53 PM PST
Nautical Twilight 5:46 AM PST 6:28 PM PST
Astronomical Twilight 5:12 AM PST 7:03 PM PST
Moon 10:22 AM PST (2/17) 12:48 AM PST (2/17)
Length of Visible Light 11h 31m
Length of Day
10h 30m
Waxing Crescent, 50% of the Moon is Illuminated
Feb 17
Waxing Crescent
Feb 17
First Quarter
Feb 25
Full
Mar 4
Last Quarter
Mar 11
New

Hourly Weather History & Observations

Time (PST) Temp. Windchill Dew Point Humidity Pressure Visibility Wind Dir Wind Speed Gust Speed Precip Events Conditions
12:53 AM 39.9 °F 32.5 °F 30.9 °F 70% 30.13 in 10.0 mi SSW 12.7 mph - N/A   Overcast
1:53 AM 39.9 °F 31.8 °F 30.0 °F 68% 30.14 in 10.0 mi SSW 15.0 mph - 0.00 in   Overcast
2:53 AM 39.9 °F 31.8 °F 30.0 °F 68% 30.14 in 10.0 mi SSW 15.0 mph - N/A   Overcast
4:53 AM 37.9 °F 30.9 °F 30.0 °F 73% 30.15 in 10.0 mi South 10.4 mph - N/A   Overcast
5:53 AM 36.0 °F 28.5 °F 28.9 °F 76% 30.16 in 10.0 mi South 10.4 mph - N/A   Clear
6:53 AM 36.0 °F 27.1 °F 28.0 °F 73% 30.17 in 10.0 mi South 13.8 mph - N/A   Scattered Clouds
7:53 AM 37.9 °F 29.6 °F 28.0 °F 68% 30.18 in 10.0 mi South 13.8 mph - N/A   Overcast
8:53 AM 39.9 °F 31.4 °F 28.9 °F 65% 30.19 in 10.0 mi SSW 16.1 mph - N/A   Mostly Cloudy
9:53 AM 42.1 °F 34.9 °F 28.0 °F 58% 30.20 in 10.0 mi SSW 13.8 mph - N/A   Clear
10:53 AM 44.1 °F 36.8 °F 28.9 °F 55% 30.19 in 10.0 mi SW 16.1 mph - N/A   Clear
11:53 AM 46.0 °F 41.0 °F 28.9 °F 51% 30.19 in 10.0 mi SSW 10.4 mph - N/A   Overcast
12:53 PM 46.9 °F - 27.0 °F 46% 30.17 in 10.0 mi WSW 12.7 mph - N/A   Scattered Clouds
1:53 PM 48.9 °F - 26.1 °F 41% 30.15 in 10.0 mi SSW 12.7 mph 19.6 mph N/A   Mostly Cloudy
2:53 PM 46.9 °F - 26.1 °F 44% 30.14 in 10.0 mi SW 11.5 mph - N/A   Scattered Clouds
4:53 PM 46.0 °F 42.5 °F 26.1 °F 46% 30.14 in 10.0 mi South 6.9 mph - N/A   Partly Cloudy
5:53 PM 44.1 °F 41.5 °F 25.0 °F 47% 30.14 in 10.0 mi WSW 4.6 mph - N/A   Clear
6:53 PM 36.0 °F 32.1 °F 26.1 °F 67% 30.15 in 10.0 mi ESE 4.6 mph - N/A   Clear
7:53 PM 36.0 °F 30.3 °F 26.1 °F 67% 30.15 in 10.0 mi ESE 6.9 mph - N/A   Clear
9:53 PM 34.0 °F 28.8 °F 26.1 °F 73% 30.14 in 10.0 mi ESE 5.8 mph - N/A   Clear
10:53 PM 33.1 °F 28.7 °F 25.0 °F 72% 30.13 in 10.0 mi East 4.6 mph - N/A   Clear
11:53 PM 32.0 °F 27.5 °F 25.0 °F 75% 30.13 in 10.0 mi East 4.6 mph - N/A   Clear